�������l�o���
Date,Time,MP-1(��Sv/h),MP-2(��Sv/h),MP-3(��Sv/h),MP-4(��Sv/h),MP-5(��Sv/h),MP-6(��Sv/h),MP-7(��Sv/h),MP-8(��Sv/h),����,����(m/s),���J
2023/10/30,00:00,0.509,0.769,0.480,0.968,0.695,0.311,0.563,0.526,�k�k��,8.1,��
2023/10/30,00:10,0.510,0.770,0.478,0.971,0.698,0.312,0.564,0.525,�k�k��,8.4,��
2023/10/30,00:20,0.509,0.767,0.478,0.971,0.696,0.312,0.563,0.525,�k�k��,8.1,��
2023/10/30,00:30,0.508,0.769,0.480,0.970,0.697,0.312,0.563,0.525,�k�k��,7.9,��
2023/10/30,00:40,0.509,0.768,0.480,0.971,0.696,0.312,0.564,0.527,�k�k��,8.9,��
2023/10/30,00:50,0.509,0.770,0.479,0.969,0.698,0.312,0.563,0.525,�k��,8.6,��
2023/10/30,01:00,0.509,0.772,0.479,0.970,0.696,0.312,0.564,0.526,�k��,9.5,��
2023/10/30,01:10,0.509,0.771,0.481,0.971,0.697,0.313,0.564,0.527,�k��,8.5,��
2023/10/30,01:20,0.507,0.771,0.480,0.970,0.697,0.311,0.565,0.526,�k��,8.5,��
2023/10/30,01:30,0.509,0.769,0.479,0.972,0.698,0.312,0.564,0.525,�k��,7.9,��
2023/10/30,01:40,0.508,0.768,0.480,0.971,0.696,0.311,0.564,0.526,�k��,7.4,��
2023/10/30,01:50,0.510,0.770,0.479,0.971,0.696,0.312,0.565,0.524,�k��,8.1,��
2023/10/30,02:00,0.509,0.771,0.480,0.972,0.698,0.312,0.564,0.526,�k��,9.4,��
2023/10/30,02:10,0.509,0.770,0.480,0.973,0.697,0.312,0.564,0.525,�k��,8.9,��
2023/10/30,02:20,0.510,0.769,0.481,0.972,0.697,0.311,0.563,0.525,�k��,8.3,��
2023/10/30,02:30,0.511,0.770,0.481,0.973,0.698,0.313,0.565,0.527,�k�k��,9.5,��
2023/10/30,02:40,0.511,0.770,0.480,0.972,0.696,0.313,0.563,0.526,�k�k��,8.9,��
2023/10/30,02:50,0.509,0.771,0.481,0.974,0.698,0.313,0.565,0.525,�k�k��,8.7,��
2023/10/30,03:00,0.510,0.770,0.480,0.972,0.698,0.312,0.563,0.525,�k��,8.5,��
2023/10/30,03:10,0.510,0.771,0.480,0.972,0.699,0.311,0.564,0.527,�k�k��,7.2,��
2023/10/30,03:20,0.510,0.771,0.480,0.973,0.698,0.312,0.564,0.527,�k�k��,7.3,��
2023/10/30,03:30,0.510,0.770,0.480,0.972,0.698,0.313,0.564,0.527,�k��,8.4,��
2023/10/30,03:40,0.510,0.771,0.480,0.973,0.697,0.313,0.564,0.526,�k�k��,8.3,��
2023/10/30,03:50,0.509,0.772,0.481,0.971,0.696,0.312,0.564,0.527,�k�k��,8.9,��
2023/10/30,04:00,0.509,0.772,0.477,0.973,0.697,0.313,0.564,0.527,�k�k��,8.9,��
2023/10/30,04:10,0.510,0.771,0.481,0.973,0.699,0.312,0.565,0.527,�k�k��,8.8,��
2023/10/30,04:20,0.509,0.770,0.479,0.974,0.697,0.313,0.564,0.527,�k�k��,9.6,��
2023/10/30,04:30,0.509,0.771,0.480,0.972,0.699,0.311,0.564,0.526,�k�k��,10.0,��
2023/10/30,04:40,0.510,0.771,0.480,0.972,0.699,0.312,0.565,0.526,�k�k��,8.7,��
2023/10/30,04:50,0.511,0.771,0.480,0.972,0.699,0.311,0.563,0.526,�k�k��,8.5,��
2023/10/30,05:00,0.510,0.771,0.481,0.976,0.698,0.312,0.565,0.525,�k�k��,9.1,��
2023/10/30,05:10,0.510,0.770,0.481,0.974,0.697,0.312,0.564,0.526,�k�k��,9.4,��
2023/10/30,05:20,0.510,0.771,0.481,0.973,0.699,0.313,0.563,0.526,�k�k��,9.0,��
2023/10/30,05:30,0.509,0.772,0.482,0.972,0.699,0.313,0.565,0.527,�k�k��,9.3,��
2023/10/30,05:40,0.511,0.773,0.482,0.975,0.701,0.312,0.563,0.527,�k�k��,9.5,��
2023/10/30,05:50,0.510,0.771,0.482,0.974,0.698,0.312,0.565,0.525,�k�k��,9.2,��
2023/10/30,06:00,0.511,0.771,0.481,0.975,0.699,0.312,0.563,0.525,�k�k��,10.2,��
2023/10/30,06:10,0.511,0.772,0.481,0.976,0.697,0.310,0.564,0.527,�k�k��,8.7,��
2023/10/30,06:20,0.512,0.772,0.481,0.972,0.698,0.313,0.565,0.527,�k�k��,8.7,��
2023/10/30,06:30,0.512,0.774,0.481,0.972,0.697,0.313,0.564,0.527,�k�k��,8.8,��
2023/10/30,06:40,0.510,0.772,0.481,0.975,0.698,0.312,0.563,0.526,�k�k��,9.9,��
2023/10/30,06:50,0.511,0.774,0.480,0.975,0.699,0.312,0.563,0.525,�k�k��,8.7,��
2023/10/30,07:00,0.510,0.773,0.481,0.974,0.699,0.312,0.565,0.527,�k�k��,9.5,��
2023/10/30,07:10,0.510,0.772,0.480,0.974,0.700,0.312,0.564,0.526,�k�k��,8.3,��
2023/10/30,07:20,0.511,0.772,0.480,0.975,0.700,0.314,0.562,0.527,�k�k��,7.9,��
2023/10/30,07:30,0.511,0.773,0.481,0.974,0.700,0.311,0.562,0.525,�k�k��,7.3,��
2023/10/30,07:40,0.511,0.773,0.481,0.975,0.699,0.313,0.563,0.527,�k�k��,7.4,��
2023/10/30,07:50,0.512,0.772,0.480,0.975,0.699,0.313,0.563,0.527,�k�k��,7.8,��
2023/10/30,08:00,0.512,0.772,0.482,0.974,0.699,0.311,0.563,0.526,�k�k��,8.2,��
2023/10/30,08:10,0.511,0.771,0.481,0.977,0.696,0.313,0.565,0.526,�k�k��,6.0,��
2023/10/30,08:20,0.512,0.771,0.481,0.977,0.698,0.312,0.565,0.526,�k�k��,6.6,��
2023/10/30,08:30,0.511,0.771,0.481,0.977,0.698,0.312,0.564,0.525,�k�k��,6.4,��
2023/10/30,08:40,0.513,0.771,0.481,0.974,0.700,0.313,0.563,0.528,�k�k��,6.8,��
2023/10/30,08:50,0.513,0.771,0.482,0.976,0.700,0.313,0.564,0.528,�k�k��,7.8,��
2023/10/30,09:00,0.512,0.771,0.485,0.977,0.700,0.312,0.564,0.528,�k�k��,7.0,��
2023/10/30,09:10,0.512,0.771,0.483,0.976,0.703,0.314,0.566,0.527,�k�k��,7.6,��
2023/10/30,09:20,0.513,0.775,0.481,0.979,0.699,0.312,0.563,0.528,�k�k��,7.2,��
2023/10/30,09:30,0.511,0.773,0.484,0.977,0.701,0.313,0.565,0.528,�k,6.5,��
2023/10/30,09:40,0.512,0.774,0.482,0.974,0.699,0.312,0.563,0.526,�k,6.0,��
2023/10/30,09:50,0.511,0.772,0.482,0.977,0.700,0.312,0.563,0.527,�k,6.6,��
2023/10/30,10:00,0.512,0.775,0.483,0.977,0.698,0.312,0.565,0.528,�k�k��,8.3,��
2023/10/30,10:10,0.511,0.771,0.482,0.978,0.698,0.312,0.564,0.527,�k,7.4,��
2023/10/30,10:20,0.510,0.775,0.482,0.980,0.701,0.311,0.564,0.525,�k,7.9,��
2023/10/30,10:30,0.513,0.774,0.482,0.977,0.702,0.312,0.564,0.526,�k,7.6,��
2023/10/30,10:40,0.512,0.775,0.483,0.980,0.701,0.310,0.564,0.525,�k,7.0,��
2023/10/30,10:50,0.512,0.776,0.482,0.977,0.702,0.312,0.563,0.527,�k,7.2,��
2023/10/30,11:00,0.513,0.775,0.484,0.979,0.702,0.311,0.565,0.526,�k,6.7,��
2023/10/30,11:10,0.514,0.777,0.483,0.979,0.704,0.313,0.565,0.526,�k,5.8,��
2023/10/30,11:20,0.513,0.774,0.484,0.978,0.703,0.312,0.563,0.527,�k�k��,4.8,��
2023/10/30,11:30,0.513,0.773,0.484,0.979,0.703,0.312,0.563,0.527,�k,6.5,��
2023/10/30,11:40,0.514,0.770,0.483,0.978,0.703,0.312,0.564,0.526,�k,7.9,��
2023/10/30,11:50,0.513,0.777,0.482,0.979,0.705,0.312,0.566,0.528,�k,7.0,��
2023/10/30,12:00,0.513,0.778,0.485,0.978,0.704,0.313,0.565,0.528,�k,7.7,��
2023/10/30,12:10,0.515,0.778,0.485,0.979,0.704,0.313,0.565,0.525,�k,6.9,��
2023/10/30,12:20,0.514,0.779,0.486,0.981,0.705,0.314,0.566,0.525,�k�k��,6.9,��
2023/10/30,12:30,0.514,0.779,0.485,0.982,0.704,0.313,0.565,0.525,�k�k��,7.3,��
2023/10/30,12:40,0.514,0.779,0.486,0.982,0.704,0.315,0.567,0.525,�k�k��,6.5,��
2023/10/30,12:50,0.516,0.780,0.485,0.981,0.705,0.313,0.564,0.526,�k,6.6,��
2023/10/30,13:00,0.514,0.780,0.486,0.982,0.704,0.314,0.566,0.527,�k�k��,6.3,��
2023/10/30,13:10,0.513,0.780,0.485,0.980,0.705,0.312,0.565,0.526,�k�k��,6.5,��
2023/10/30,13:20,0.515,0.782,0.484,0.981,0.706,0.312,0.566,0.526,�k�k��,6.8,��
2023/10/30,13:30,0.513,0.779,0.487,0.981,0.706,0.312,0.566,0.527,�k�k��,6.7,��
2023/10/30,13:40,0.516,0.778,0.486,0.980,0.705,0.313,0.567,0.526,�k�k��,6.9,��
2023/10/30,13:50,0.515,0.780,0.486,0.981,0.708,0.311,0.565,0.527,�k�k��,6.6,��
2023/10/30,14:00,0.516,0.780,0.485,0.982,0.706,0.313,0.566,0.527,�k�k��,6.5,��
2023/10/30,14:10,0.515,0.780,0.486,0.984,0.707,0.313,0.566,0.525,�k�k��,6.4,��
2023/10/30,14:20,0.516,0.782,0.485,0.983,0.706,0.313,0.566,0.526,�k�k��,7.0,��
2023/10/30,14:30,0.516,0.781,0.484,0.983,0.705,0.313,0.566,0.527,�k�k��,6.4,��
2023/10/30,14:40,0.516,0.780,0.485,0.983,0.705,0.312,0.565,0.526,�k,5.4,��
2023/10/30,14:50,0.516,0.779,0.485,0.983,0.708,0.312,0.567,0.526,�k�k��,4.2,��
2023/10/30,15:00,0.515,0.780,0.485,0.982,0.710,0.313,0.565,0.527,�k�k��,3.7,��
2023/10/30,15:10,0.515,0.777,0.487,0.982,0.705,0.311,0.566,0.526,�k�k��,4.5,��
2023/10/30,15:20,0.514,0.780,0.486,0.979,0.707,0.313,0.566,0.525,�k,4.4,��
2023/10/30,15:30,0.515,0.780,0.486,0.979,0.707,0.312,0.565,0.526,�k,3.6,��
2023/10/30,15:40,0.516,0.777,0.485,0.979,0.708,0.313,0.567,0.527,�k,3.0,��
2023/10/30,15:50,0.515,0.780,0.487,0.978,0.706,0.315,0.566,0.526,�k,2.5,��
2023/10/30,16:00,0.515,0.782,0.487,0.978,0.710,0.315,0.566,0.527,�k�k��,2.6,��
2023/10/30,16:10,0.516,0.781,0.486,0.982,0.706,0.315,0.567,0.530,�k,2.8,��
2023/10/30,16:20,0.514,0.784,0.485,0.980,0.707,0.315,0.567,0.527,�k�k��,2.6,��
2023/10/30,16:30,0.514,0.783,0.486,0.982,0.708,0.315,0.566,0.529,�k�k��,2.9,��
2023/10/30,16:40,0.515,0.783,0.485,0.982,0.706,0.314,0.567,0.528,�k�k��,2.6,��
2023/10/30,16:50,0.515,0.786,0.484,0.982,0.706,0.314,0.567,0.528,�k,3.0,��
2023/10/30,17:00,0.515,0.783,0.485,0.983,0.709,0.315,0.567,0.528,�k�k��,2.5,��
2023/10/30,17:10,0.517,0.783,0.486,0.981,0.709,0.313,0.565,0.529,�k�k��,2.5,��
2023/10/30,17:20,0.515,0.784,0.487,0.983,0.707,0.316,0.567,0.528,�k��,2.9,��
2023/10/30,17:30,0.518,0.784,0.487,0.984,0.710,0.315,0.566,0.528,�k�k��,2.8,��
2023/10/30,17:40,0.517,0.783,0.488,0.981,0.710,0.315,0.566,0.527,�k��,2.2,��
2023/10/30,17:50,0.517,0.782,0.488,0.983,0.711,0.313,0.566,0.528,���k��,3.0,��
2023/10/30,18:00,0.516,0.783,0.487,0.983,0.710,0.315,0.567,0.529,���k��,2.9,��
2023/10/30,18:10,0.516,0.785,0.487,0.983,0.709,0.314,0.568,0.527,���k��,3.1,��
2023/10/30,18:20,0.517,0.786,0.486,0.984,0.710,0.315,0.567,0.527,���k��,2.9,��
2023/10/30,18:30,0.518,0.784,0.488,0.985,0.708,0.315,0.567,0.528,���k��,3.0,��
2023/10/30,18:40,0.517,0.783,0.485,0.985,0.710,0.314,0.566,0.527,���k��,2.2,��
2023/10/30,18:50,0.516,0.784,0.487,0.983,0.711,0.315,0.567,0.526,���k��,2.6,��
2023/10/30,19:00,0.518,0.784,0.487,0.985,0.708,0.315,0.568,0.528,���k��,2.9,��
2023/10/30,19:10,0.518,0.784,0.488,0.985,0.709,0.314,0.568,0.527,��,2.5,��
2023/10/30,19:20,0.516,0.783,0.486,0.984,0.708,0.315,0.567,0.527,���k��,2.6,��
2023/10/30,19:30,0.517,0.782,0.486,0.982,0.709,0.314,0.566,0.529,�k��,2.5,��
2023/10/30,19:40,0.515,0.786,0.487,0.984,0.709,0.313,0.568,0.528,���k��,2.6,��
2023/10/30,19:50,0.516,0.784,0.487,0.985,0.709,0.316,0.567,0.528,��,2.5,��
2023/10/30,20:00,0.516,0.784,0.488,0.986,0.711,0.315,0.567,0.529,���k��,2.3,��
2023/10/30,20:10,0.518,0.784,0.487,0.984,0.710,0.315,0.568,0.528,���k��,2.3,��
2023/10/30,20:20,0.517,0.784,0.487,0.985,0.711,0.315,0.566,0.528,���k��,2.3,��
2023/10/30,20:30,0.516,0.783,0.486,0.986,0.711,0.315,0.567,0.528,���k��,1.9,��
2023/10/30,20:40,0.518,0.783,0.488,0.986,0.709,0.314,0.567,0.526,��,2.0,��
2023/10/30,20:50,0.516,0.783,0.487,0.985,0.709,0.314,0.567,0.528,��,1.7,��
2023/10/30,21:00,0.517,0.784,0.486,0.985,0.711,0.314,0.567,0.527,��,1.7,��
2023/10/30,21:10,0.517,0.782,0.486,0.986,0.708,0.314,0.567,0.530,���k��,1.2,��
2023/10/30,21:20,0.518,0.783,0.487,0.987,0.707,0.314,0.567,0.528,���k��,2.0,��
2023/10/30,21:30,0.516,0.783,0.488,0.984,0.709,0.314,0.567,0.526,���k��,2.6,��
2023/10/30,21:40,0.516,0.784,0.487,0.985,0.710,0.314,0.568,0.528,���k��,2.6,��
2023/10/30,21:50,0.517,0.783,0.486,0.986,0.708,0.314,0.568,0.527,���k��,2.6,��
2023/10/30,22:00,0.518,0.783,0.488,0.986,0.712,0.314,0.568,0.527,��,2.8,��
2023/10/30,22:10,0.517,0.783,0.485,0.985,0.709,0.315,0.568,0.528,��,1.7,��
2023/10/30,22:20,0.517,0.785,0.488,0.985,0.710,0.313,0.569,0.526,��,1.7,��
2023/10/30,22:30,0.518,0.784,0.486,0.986,0.710,0.314,0.566,0.527,���k��,2.3,��
2023/10/30,22:40,0.515,0.784,0.487,0.985,0.710,0.314,0.567,0.528,���k��,1.5,��
2023/10/30,22:50,0.516,0.783,0.486,0.986,0.709,0.316,0.567,0.526,���k��,1.2,��
2023/10/30,23:00,0.518,0.781,0.487,0.985,0.708,0.315,0.567,0.528,��,2.5,��
2023/10/30,23:10,0.516,0.783,0.485,0.984,0.707,0.313,0.569,0.527,��,2.5,��
2023/10/30,23:20,0.517,0.783,0.487,0.986,0.708,0.314,0.566,0.527,���쐼,1.5,��
2023/10/30,23:30,0.515,0.782,0.484,0.983,0.709,0.315,0.569,0.528,���쐼,1.2,��
2023/10/30,23:40,0.515,0.782,0.486,0.987,0.709,0.314,0.569,0.527,��,0.6,��
2023/10/30,23:50,0.517,0.783,0.488,0.986,0.709,0.313,0.568,0.528,���쐼,1.7,��
